OBJECT CA, 60449

Orbit data source: Space-Track

You're viewing an Uncataloged Satellite

Recently launched and/or uncataloged satellites may have evolving metadata. Metadata may include but not limited to: Owner, Maufacturer, Bus, Motor, and Mission.

OBJECT CA, 60449 is a satellite in SSO that was launched on Mon, 12 Jun 2023 UTC launched from the Air Force Western Test Range (AFWTR). Unknown objects in Earth's orbit typically refer to objects detected orbiting the Earth but have not yet been identified or cataloged. These objects could be anything from previously untracked satellites, spent rocket stages, debris from satellite collisions, or even natural meteoroids temporarily captured by Earth's gravity.

Not visible in the next 10 days
Identifier
60449, 2023-084CA
Orbit
SSO
Country
Flag of TBDTBD
Related business
None
Manufacturer
Unknown (US)
Mission
Spacecraft
Bus & Motor
Unknown
Mass
Unknown
Launch date (UTC)
2023-06-12 (2 years ago)
Launch vehicle
Unknown
Launch site
Air Force Western Test Range (AFWTR)
Object type
Unknown
Shape & HBR
Unknown shape, 0.1 m
Radar Cross Section
Small (<0.1 m²)

Expand to show TLE details & history
Last TLE update: 3 days ago

TLE from 3 days ago
0 OBJECT CA
1 60449U 23084CA  25289.13205563  .00157536  00000-0  10107-2 0  9999
2 60449  97.5748  73.7475 0002232   5.4025 354.7263 15.75794864116467
Epoch: 2025-10-16T03:10Z
TLE epoch observation values (Epoch: 2025-10-16T03:10:09.606Z)
Latitude
-0.00006°
Longitude
1.31131°
Altitude
344.037 km
Speed
7.703 km/s
True Right ascension
04h 54m 59s
True Declination
0° 00' 00"
Sunlit
Object was in full shadow at epoch
Visualization orbit readout
Latitude
Unknown
Longitude
Unknown
Altitude
Unknown
Speed
Unknown
Apparent Right ascension
Unknown
Apparent Declination
Unknown
Sunlit
N/A
Visualization observer readout
Local Sidereal Time
18:50:44
Azimuth
Unknown
Elevation
Unknown
Doppler factor
Unknown
Orbital elements
Apogee altitude
340.769 km
Perigee altitude
337.77 km
Semi-major axis
6,717.407 km
Eccentricity
0.00022
Inclination
97.5748°
RAAN
73.7475°
Arg. of periapsis
5.4025°
True anomaly
354.72395°
Mean anomaly
354.7263°
Eccentric anomaly
354.72512°
Mean motion
3.94222 °/min
Orbital period
91.32 mins
BSTAR
0.0010107
Loading maneuver chart data...
Computing Atmospheric mass density...

Documentation

Showing up to 5 results
|